Monticello, KY

1:16 AM EST on December 11, 2019 (GMT -0500)
Wayne County

Weather History for KEKQ - September, 2019

Change the Weather History Date:

Monday, September 23, 2019

  Actual Average Record
Temperature  
Mean Temperature 66 °F -  
Max Temperature 77 °F 76 °F 95 °F (2007)
Min Temperature 55 °F 53 °F 36 °F (1974)
Cooling Degree Days 1    
Growing Degree Days 16 (Base 50)    
Moisture  
Dew Point 63 °F    
Average Humidity 85    
Maximum Humidity 100    
Minimum Humidity 60    
Precipitation  
Precipitation 0.00 in - - ()
Sea Level Pressure  
Sea Level Pressure 30.05 in    
Wind  
Wind Speed 8 mph (WNW)    
Max Wind Speed 15 mph    
Max Gust Speed 21 mph    
Visibility 10 miles    
Events Rain    
Averages and records for this station are not official NWS values.
T = Trace of Precipitation, MM = Missing Value Source: NWS Daily Summary

Daily Weather History Graph

Daily Weather History Graph

Search for Another Location

Airport or City:

Astronomy

Sep. 23, 2019 Rise Set
Actual Time 6:27 AM CDT 6:35 PM CDT
Civil Twilight 6:02 AM CDT 7:00 PM CDT
Nautical Twilight 5:31 AM CDT 7:31 PM CDT
Astronomical Twilight 5:01 AM CDT 8:01 PM CDT
Moon 12:19 AM CDT (9/23) 3:18 PM CDT (9/23)
Length of Visible Light 12h 58m
Length of Day
12h 07m
Waning Crescent, 33% of the Moon is Illuminated
Sep 23
Waning Crescent
Sep 28
New
Oct 5
First Quarter
Oct 13
Full
Oct 21
Last Quarter

Hourly Weather History & Observations

Time (CDT) Temp. Dew Point Humidity Pressure Visibility Wind Dir Wind Speed Gust Speed Precip Events Conditions
12:56 AM 57.0 °F 55.0 °F 93% 30.08 in 10.0 mi Calm Calm - N/A   Clear
1:56 AM 55.0 °F 54.0 °F 96% 30.07 in 10.0 mi Variable 5.8 mph - N/A   Clear
2:56 AM 55.9 °F 54.0 °F 93% 30.06 in 10.0 mi NE 9.2 mph - N/A   Clear
3:56 AM 55.9 °F 54.0 °F 93% 30.06 in 10.0 mi NNE 8.1 mph - N/A   Clear
4:56 AM 57.9 °F 55.9 °F 93% 30.05 in 10.0 mi West 9.2 mph - N/A   Mostly Cloudy
5:56 AM 63.0 °F 59.0 °F 87% 30.06 in 10.0 mi West 10.4 mph - N/A   Overcast
6:56 AM 64.9 °F 61.0 °F 87% 30.06 in 10.0 mi NE 6.9 mph - N/A   Overcast
7:56 AM 69.1 °F 61.0 °F 75% - 10.0 mi NW 8.1 mph - N/A   Overcast
8:56 AM 72.0 °F 61.0 °F 68% 30.08 in 10.0 mi NE 8.1 mph - N/A   Overcast
9:56 AM 75.0 °F 60.1 °F 60% 30.08 in 10.0 mi West 13.8 mph - N/A   Overcast
10:29 AM 75.2 °F 60.8 °F 61% 30.10 in 10.0 mi WSW 15.0 mph 19.6 mph N/A   Overcast
10:56 AM 75.9 °F 62.1 °F 62% 30.08 in 10.0 mi West 12.7 mph 16.1 mph N/A Rain Light Rain
11:56 AM 72.0 °F 66.9 °F 84% 30.08 in 6.0 mi West 15.0 mph 20.7 mph 0.00 in Rain Light Rain
12:56 PM 72.0 °F 68.0 °F 87% 30.06 in 10.0 mi Variable 3.5 mph - 0.00 in   Overcast
1:56 PM 72.0 °F 68.0 °F 87% 30.05 in 10.0 mi NNW 8.1 mph - 0.00 in   Overcast
2:07 PM 71.6 °F 68.0 °F 88% 30.07 in 10.0 mi West 13.8 mph 17.3 mph N/A   Overcast
2:56 PM 73.9 °F 68.0 °F 82% 30.04 in 10.0 mi West 8.1 mph - N/A   Overcast
3:14 PM 73.4 °F 68.0 °F 83% 30.07 in 10.0 mi West 8.1 mph - 0.00 in Rain Light Rain
3:26 PM 75.2 °F 68.0 °F 78% 30.07 in 10.0 mi West 12.7 mph - 0.00 in   Overcast
3:48 PM 75.2 °F 68.0 °F 78% 30.06 in 10.0 mi WSW 13.8 mph - 0.00 in   Overcast
3:56 PM 75.0 °F 68.0 °F 79% 30.03 in 10.0 mi West 10.4 mph - 0.00 in   Overcast
4:56 PM 77.0 °F 68.0 °F 74% 30.01 in 10.0 mi Variable 3.5 mph - N/A   Scattered Clouds
5:56 PM 75.9 °F 69.1 °F 79% 30.01 in 10.0 mi Variable 4.6 mph - N/A   Clear
6:56 PM 68.0 °F 64.9 °F 90% 30.01 in 10.0 mi West 10.4 mph - N/A   Clear
7:56 PM 63.0 °F 63.0 °F 100% 30.01 in 10.0 mi West 9.2 mph - N/A   Clear
8:56 PM 64.0 °F 64.0 °F 100% 30.01 in 10.0 mi NNE 12.7 mph - N/A   Partly Cloudy
9:56 PM 63.0 °F 63.0 °F 100% 30.01 in 10.0 mi West 8.1 mph - N/A   Mostly Cloudy
10:56 PM 62.1 °F 62.1 °F 100% 30.01 in 7.0 mi West 10.4 mph - N/A   Clear
11:56 PM 59.0 °F 59.0 °F 100% 30.02 in 6.0 mi Calm Calm - N/A   Clear